Flag for Russia Weather past 2 weeks in Sochi, Russia

50 °F


Feels Like: 47 °F
Forecast: 45 / 50 °F
Wind: 8 mph from East

Location: Adler

Current Time: Nov 30, 2015 at 6:44:57 AM

Latest Report: Nov 30, 2015 at 6:00 AM

Visibility: N/A

Pressure: 30.04 "Hg

Humidity: 88%

Dew point: 46 °F

Location of SochiLocation

Historic Weather in Sochi — Graph


Sochi temperature yesterday

Maximum temperature yesterday: 64 °F (at 2:30 AM)
Minimum temperature yesterday: 52 °F (at 9:00 PM)
Average temperature yesterday: 57 °F

Past Weeks' High & Low Weather Summary

High70 °F (Nov 22, 11:30 AM)94% (Nov 29, 6:00 PM)30.27 "Hg (Nov 29, 6:00 PM)
Low37 °F (Nov 18, 5:30 AM)21% (Nov 22, 11:30 AM)29.74 "Hg (Nov 16, 11:30 PM)
Average53 °F61%30.03 "Hg
* Reported Nov 15 5:00 AM — Nov 30 5:00 AM, Sochi, Weather by CustomWeather, © 2015

Note: Actual official high and low records may vary slightly from our data, if they occured in-between our weather recording intervals... More about our weather records


Sochi weather history for previous 24 hours

Time TempWeatherWind HumidityBarometerVisibility
5:00 AM
Mon, Nov 30
50 °FSprinkles. Overcast.8 mph88%30.07 "HgN/A
4:30 AM50 °FMostly cloudy.3 mph88%30.07 "HgN/A
3:30 AM50 °FSprinkles. Overcast.1 mph88%30.07 "HgN/A
3:00 AM50 °FMostly cloudy.3 mph88%30.07 "HgN/A
2:30 AM48 °FPartly cloudy.1 mph94%30.07 "HgN/A
2:00 AM50 °FPartly cloudy.1 mph88%30.07 "HgN/A
1:30 AM50 °FMostly cloudy.3 mph88%30.07 "HgN/A
1:00 AM50 °FOvercast.3 mph94%30.09 "HgN/A
12:30 AM50 °FOvercast.1 mph88%30.07 "HgN/A
12:00 AM52 °FSprinkles. Overcast.1 mph88%30.07 "HgN/A
11:30 PM
Sun, Nov 29
52 °FSprinkles. Mostly cloudy.6 mph88%30.07 "HgN/A
11:00 PM52 °FSprinkles. Mostly cloudy.6 mph88%30.07 "HgN/A
10:30 PM52 °FSprinkles. Mostly cloudy.6 mph94%30.07 "HgN/A
10:00 PM52 °FSprinkles. Mostly cloudy.3 mph94%30.07 "HgN/A
9:30 PM52 °FSprinkles. Mostly cloudy.No wind94%30.07 "HgN/A
9:00 PM52 °FSprinkles. Mostly cloudy.No wind94%30.04 "HgN/A
8:30 PM54 °FSprinkles. Mostly cloudy.No wind88%30.04 "Hg6 mi
8:00 PM54 °FMostly cloudy.1 mph88%30.04 "HgN/A
7:30 PM54 °FMostly cloudy.1 mph88%30.04 "HgN/A
7:00 PM54 °FSprinkles. Mostly cloudy.3 mph94%30.04 "HgN/A
6:30 PM54 °FSprinkles. Mostly cloudy.6 mph94%30.01 "Hg3 mi
6:00 PM54 °FThundershowers. Mostly cloudy.8 mph94%30.01 "Hg1 mi
5:30 PM55 °FSprinkles. Mostly cloudy.3 mph82%29.98 "HgN/A
5:00 PM55 °FMostly cloudy.6 mph88%29.98 "HgN/A
4:30 PM55 °FMostly cloudy.6 mph82%29.98 "HgN/A
4:00 PM55 °FMostly cloudy.6 mph82%29.98 "HgN/A
3:30 PM55 °FSprinkles. More clouds than sun.6 mph82%29.98 "HgN/A
3:00 PM57 °FMore clouds than sun.6 mph82%29.95 "HgN/A
2:30 PM57 °FMore clouds than sun.8 mph82%29.95 "HgN/A
2:00 PM55 °FSprinkles. More clouds than sun.8 mph88%29.95 "HgN/A
1:30 PM55 °FSprinkles. More clouds than sun.6 mph88%29.92 "Hg6 mi
12:30 PM55 °FSprinkles. Overcast.10 mph88%29.92 "Hg4 mi
12:00 PM57 °FSprinkles. Overcast.10 mph77%29.89 "HgN/A
11:30 AM57 °FMostly cloudy.10 mph77%29.89 "HgN/A
11:00 AM59 °FMostly cloudy.3 mph72%29.89 "HgN/A
9:30 AM55 °FSprinkles. Mostly cloudy.6 mph88%29.89 "Hg6 mi
8:00 AM59 °FSprinkles. Mostly cloudy.8 mph72%29.86 "HgN/A
7:30 AM59 °FSprinkles. Mostly cloudy.13 mph72%29.86 "HgN/A
7:00 AM59 °FOvercast.3 mph68%29.83 "HgN/A
6:30 AM59 °FOvercast.8 mph68%29.83 "HgN/A
6:00 AM59 °FMostly cloudy.3 mph68%29.80 "HgN/A
Weather by CustomWeather, © 2015

See weather overviewHow to use our weather pages